DW3725 Oslo NO current weather conditions

sailwx.info

Wind from 203 at 2 knots gusting 5

Air temperature 19.4° C
Dewpoint 9.3° C

Last reported at 2019-Jun-19 14:10 UTC.
Time now 2019-Jun-19 14:55 UTC

Location: N 60°15' E 011°13'.
View on Google Maps.

See reports from other nearby stations

  
Tides and Currents Weather Stations Pressure Air Temp Water Temp Dewpoint Dewpoint Depression Visibility Wind Speed Wind Dir Waves Ship Positions
date/time (UTC)wind fromknots sea level pressurealtimeterstation pressurevisibilityair tempwater tempwave heightnotes
2019-Jun-19 14:10 203 2 gusting 5 19.4
2019-Jun-19 14:05 245 1 gusting 5 19.4
2019-Jun-19 14:00 224 2 gusting 7 19.4
2019-Jun-19 13:55 192 2 gusting 5 18.9
2019-Jun-19 13:50 216 0 gusting 2 18.9
2019-Jun-19 13:40 065 0 gusting 5 18.3
2019-Jun-19 13:35 209 0 gusting 2 18.3
2019-Jun-19 13:30 165 0 gusting 1 18.3
2019-Jun-19 13:25 082 0 gusting 2 18.3
2019-Jun-19 13:20 213 18.3
2019-Jun-19 13:10 157 0 gusting 4 18.3
2019-Jun-19 13:05 185 1 gusting 6 18.3
2019-Jun-19 13:00 183 1 gusting 6 18.3
2019-Jun-19 12:55 195 2 gusting 6 18.9
2019-Jun-19 12:40 099 0 gusting 4 19.4
2019-Jun-19 12:30 166 1 gusting 5 20.0
2019-Jun-19 12:25 165 2 gusting 7 20.0
2019-Jun-19 12:15 189 2 gusting 5 20.0
2019-Jun-19 12:10 171 0 gusting 4 20.0
2019-Jun-19 12:05 213 1 gusting 5 20.0
2019-Jun-19 12:00 144 0 gusting 4 20.0
2019-Jun-19 11:45 263 1 gusting 6 19.4
2019-Jun-19 11:40 141 0 gusting 2 19.4
2019-Jun-19 11:20 009 1 gusting 6 18.9
2019-Jun-19 11:10 093 0 gusting 2 18.3
2019-Jun-19 11:05 200 0 gusting 5 18.3
2019-Jun-19 11:00 211 0 gusting 6 18.3
2019-Jun-19 10:55 202 1 gusting 2 17.8
2019-Jun-19 10:50 203 0 gusting 4 17.8
2019-Jun-19 10:35 203 1 gusting 6 18.3
2019-Jun-19 10:25 154 1 gusting 5 18.3
2019-Jun-19 10:20 133 0 gusting 4 18.3
2019-Jun-19 10:15 167 1 gusting 4 17.8
2019-Jun-19 10:05 196 17.2
2019-Jun-19 09:55 196 0 gusting 2 17.2
2019-Jun-19 09:50 113 0 gusting 2 17.2
2019-Jun-19 09:45 139 0 gusting 2 16.7
2019-Jun-19 09:40 165 0 gusting 2 16.7
2019-Jun-19 09:35 213 2 gusting 5 16.7
2019-Jun-19 09:30 249 0 gusting 2 16.7
2019-Jun-19 09:25 155 0 gusting 2 16.7
2019-Jun-19 09:15 192 0 gusting 2 16.1
2019-Jun-19 09:10 158 1 gusting 4 16.1
2019-Jun-19 09:05 194 1 gusting 4 16.1
2019-Jun-19 09:00 223 1 gusting 5 16.1
2019-Jun-19 08:55 196 2 gusting 5 16.1
2019-Jun-19 08:40 165 1 gusting 5 16.1
2019-Jun-19 08:30 185 0 gusting 4 16.1
2019-Jun-19 08:20 192 2 gusting 6 15.6
2019-Jun-19 08:15 168 2 gusting 6 15.0
2019-Jun-19 08:10 202 1 gusting 5 15.0
2019-Jun-19 08:05 179 0 gusting 4 15.0
2019-Jun-19 07:55 123 0 gusting 2 15.0
2019-Jun-19 07:40 162 2 gusting 5 15.0
2019-Jun-19 07:30 186 15.0
2019-Jun-19 07:20 177 0 gusting 2 14.4
2019-Jun-19 07:15 122 0 gusting 6 14.4
2019-Jun-19 07:10 190 1 gusting 2 14.4
2019-Jun-19 07:05 166 0 gusting 2 13.9
2019-Jun-19 07:00 262 0 gusting 2 13.9
2019-Jun-19 06:45 035 0 gusting 1 13.3
2019-Jun-19 06:40 035 0 gusting 2 13.3
2019-Jun-19 06:30 164 12.8
2019-Jun-19 06:25 165 12.8
2019-Jun-19 06:15 165 0 gusting 2 12.8
2019-Jun-19 06:10 192 1 gusting 2 12.2
2019-Jun-19 06:05 147 0 gusting 2 12.2
2019-Jun-19 06:00 180 0 gusting 2 12.2
2019-Jun-19 05:55 180 1 gusting 2 12.2
2019-Jun-19 05:50 202 12.2
2019-Jun-19 05:40 202 0 gusting 2 12.2
2019-Jun-19 05:35 202 0 gusting 2 12.2
2019-Jun-19 05:30 177 1 gusting 4 11.7
2019-Jun-19 05:25 145 0 gusting 2 11.7
2019-Jun-19 05:15 175 0 gusting 4 11.7
2019-Jun-19 05:10 134 1 gusting 2 11.7
2019-Jun-19 05:00 197 0 gusting 2 11.7
2019-Jun-19 04:55 210 0 gusting 2 11.7
2019-Jun-19 04:50 166 1 gusting 2 11.1
2019-Jun-19 04:45 158 11.1
2019-Jun-19 04:40 157 0 gusting 2 11.1
2019-Jun-19 04:30 180 11.1
2019-Jun-19 04:25 180 0 gusting 1 11.1
2019-Jun-19 04:20 180 11.1
2019-Jun-19 04:15 170 11.1
2019-Jun-19 03:55 191 11.1
2019-Jun-19 03:50 191 11.1
2019-Jun-19 03:40 191 10.6
2019-Jun-19 03:35 191 10.6
2019-Jun-19 03:30 191 10.6
2019-Jun-19 03:20 191 10.6
2019-Jun-19 03:15 191 10.6
2019-Jun-19 03:05 191 10.6
2019-Jun-19 03:00 191 10.6
2019-Jun-19 02:55 191 10.6
2019-Jun-19 02:40 223 0 gusting 1 10.6
2019-Jun-19 02:35 186 0 gusting 1 10.6
2019-Jun-19 02:25 168 0 gusting 2 10.6
2019-Jun-19 02:20 168 0 gusting 2 10.6
2019-Jun-19 02:10 149 0 gusting 2 10.6
2019-Jun-19 02:00 155 0 gusting 2 10.6
2019-Jun-19 01:55 158 0 gusting 1 10.6
2019-Jun-19 01:50 148 0 gusting 2 10.6
2019-Jun-19 01:45 141 10.6
2019-Jun-19 01:40 139 0 gusting 1 10.6
2019-Jun-19 01:35 192 0 gusting 2 11.1
2019-Jun-19 01:30 213 0 gusting 2 11.1
2019-Jun-19 01:25 323 11.1
2019-Jun-19 01:20 323 0 gusting 2 11.1
2019-Jun-19 01:15 132 0 gusting 2 11.1
2019-Jun-19 01:05 150 0 gusting 2 11.1
2019-Jun-19 01:00 159 11.7
2019-Jun-19 00:55 156 0 gusting 1 11.7
2019-Jun-19 00:50 175 11.7
2019-Jun-19 00:45 188 11.7
2019-Jun-19 00:40 188 11.7
2019-Jun-19 00:30 179 1 gusting 5 12.2
2019-Jun-19 00:20 195 0 gusting 2 12.2
2019-Jun-19 00:15 156 1 gusting 2 12.2
2019-Jun-19 00:05 169 0 gusting 4 12.8
2019-Jun-19 00:00 168 0 gusting 2 12.8
2019-Jun-18 23:55 176 0 gusting 2 12.8
2019-Jun-18 23:50 182 0 gusting 2 12.8
2019-Jun-18 23:45 199 1 gusting 4 12.8
2019-Jun-18 23:40 196 1 gusting 4 12.8
2019-Jun-18 23:35 188 0 gusting 2 12.8
2019-Jun-18 23:30 188 1 gusting 4 12.8
2019-Jun-18 23:25 194 1 gusting 2 13.3
2019-Jun-18 23:20 222 0 gusting 1 13.3
2019-Jun-18 23:15 223 13.3
2019-Jun-18 23:10 223 13.3
2019-Jun-18 23:05 224 0 gusting 2 13.3
2019-Jun-18 23:00 194 0 gusting 4 13.3
2019-Jun-18 22:55 197 1 gusting 4 13.3
2019-Jun-18 22:50 166 0 gusting 7 13.3
2019-Jun-18 22:45 169 1 gusting 5 13.3
2019-Jun-18 22:35 188 1 gusting 4 13.3
2019-Jun-18 22:30 173 0 gusting 4 13.3
2019-Jun-18 22:20 156 0 gusting 2 13.3
2019-Jun-18 22:15 183 0 gusting 1 13.3
2019-Jun-18 22:10 183 0 gusting 2 13.3
2019-Jun-18 22:05 157 1 gusting 2 13.3
2019-Jun-18 22:00 184 0 gusting 2 13.3
2019-Jun-18 21:50 170 0 gusting 4 13.3
2019-Jun-18 21:45 154 1 gusting 5 13.3
2019-Jun-18 21:10 170 0 gusting 2 13.9
2019-Jun-18 21:05 134 0 gusting 2 13.9
2019-Jun-18 20:55 144 13.9
2019-Jun-18 20:50 144 14.4
2019-Jun-18 20:45 149 0 gusting 2 14.4
2019-Jun-18 20:40 146 0 gusting 1 14.4
2019-Jun-18 20:35 145 14.4
2019-Jun-18 20:30 151 1 gusting 2 14.4
2019-Jun-18 20:25 159 1 gusting 2 14.4
2019-Jun-18 20:20 222 0 gusting 2 15.0
2019-Jun-18 20:15 153 0 gusting 4 15.0
2019-Jun-18 20:10 163 0 gusting 5 15.0
2019-Jun-18 19:55 207 2 gusting 6 15.6
2019-Jun-18 19:45 204 2 gusting 8 15.6
2019-Jun-18 19:40 204 3 gusting 11 15.6
2019-Jun-18 19:20 231 3 gusting 13 16.1
2019-Jun-18 19:15 186 2 gusting 13 16.1
2019-Jun-18 19:10 208 6 gusting 11 16.1
2019-Jun-18 19:05 221 4 gusting 10 16.1
2019-Jun-18 19:00 227 2 gusting 2 16.1
2019-Jun-18 18:55 167 2 gusting 10 16.1
2019-Jun-18 18:50 192 4 gusting 12 16.1
2019-Jun-18 18:40 196 5 gusting 13 16.7
2019-Jun-18 18:35 195 5 gusting 17 16.7
2019-Jun-18 18:30 200 6 gusting 14 17.2
2019-Jun-18 18:25 191 3 gusting 10 17.2
2019-Jun-18 18:20 184 5 gusting 13 17.2
2019-Jun-18 18:15 182 3 gusting 13 17.2
2019-Jun-18 18:10 151 2 gusting 10 17.2
2019-Jun-18 18:05 183 4 gusting 10 17.2
2019-Jun-18 18:00 183 2 gusting 12 17.2
2019-Jun-18 17:55 190 6 gusting 12 17.2
2019-Jun-18 17:50 186 4 gusting 10 17.2
2019-Jun-18 17:40 190 4 gusting 10 17.2
2019-Jun-18 17:35 208 4 gusting 12 17.2
2019-Jun-18 17:30 188 5 gusting 13 17.8
2019-Jun-18 17:25 199 4 gusting 10 17.8
2019-Jun-18 17:05 190 5 gusting 13 17.8
2019-Jun-18 16:55 168 4 gusting 15 17.8
2019-Jun-18 16:50 183 5 gusting 13 17.8
2019-Jun-18 16:40 199 4 gusting 12 17.8
2019-Jun-18 16:35 175 4 gusting 8 17.8
2019-Jun-18 16:30 182 6 gusting 15 17.8
2019-Jun-18 16:20 196 4 gusting 12 17.8
2019-Jun-18 16:15 178 5 gusting 15 18.3
2019-Jun-18 16:10 192 4 gusting 12 18.3
2019-Jun-18 16:00 195 3 gusting 8 18.9
2019-Jun-18 15:55 176 4 gusting 11 18.9
2019-Jun-18 15:50 184 2 gusting 12 18.9
2019-Jun-18 15:40 183 5 gusting 12 19.4
2019-Jun-18 15:25 186 4 gusting 10 19.4
2019-Jun-18 15:15 206 5 gusting 13 18.9
2019-Jun-18 15:00 215 4 gusting 10 18.9
2019-Jun-18 14:55 195 6 gusting 13 18.9
2019-Jun-18 14:45 212 3 gusting 8 18.9
2019-Jun-18 14:40 214 3 gusting 8 18.9
2019-Jun-18 14:30 208 5 gusting 13 18.9
2019-Jun-18 14:25 186 4 gusting 11 18.9
2019-Jun-18 14:20 183 5 gusting 12 18.9
2019-Jun-18 14:10 190 5 gusting 12 18.9
2019-Jun-18 14:05 191 5 gusting 14 18.9
2019-Jun-18 13:55 188 4 gusting 12 18.9
2019-Jun-18 13:45 191 5 gusting 11 19.4
2019-Jun-18 13:40 214 5 gusting 13 19.4
2019-Jun-18 13:35 196 6 gusting 13 19.4
2019-Jun-18 13:30 165 6 gusting 10 19.4
2019-Jun-18 13:15 201 5 gusting 11 18.9
2019-Jun-18 13:10 186 5 gusting 19 19.4
2019-Jun-18 13:05 196 4 gusting 17 19.4
2019-Jun-18 13:00 192 5 gusting 18 19.4
2019-Jun-18 12:55 201 6 gusting 17 19.4
2019-Jun-18 12:50 200 6 gusting 18 18.9
2019-Jun-18 12:25 170 2 gusting 10 18.3
2019-Jun-18 12:20 178 4 gusting 10 18.3
2019-Jun-18 12:10 212 4 gusting 12 18.3
2019-Jun-18 12:05 206 4 gusting 12 18.9
2019-Jun-18 12:00 264 2 gusting 12 18.9
2019-Jun-18 11:55 212 5 gusting 11 18.9
2019-Jun-18 11:50 191 5 gusting 10 18.9
2019-Jun-18 11:40 183 4 gusting 10 18.9
2019-Jun-18 11:25 217 3 gusting 7 18.3
2019-Jun-18 11:20 194 6 gusting 10 17.8
2019-Jun-18 11:15 184 4 gusting 10 17.2
2019-Jun-18 11:10 186 5 gusting 11 17.2
2019-Jun-18 11:00 186 4 gusting 10 17.2
2019-Jun-18 10:55 169 2 gusting 8 17.2
2019-Jun-18 10:50 221 2 gusting 8 16.7
2019-Jun-18 10:45 172 4 gusting 10 16.7
2019-Jun-18 10:40 211 1 gusting 4 16.1
2019-Jun-18 10:35 199 4 gusting 7 16.1
2019-Jun-18 10:10 187 4 gusting 10 15.0
2019-Jun-18 10:05 191 5 gusting 10 15.0
2019-Jun-18 09:45 186 2 gusting 7 15.0
2019-Jun-18 09:40 188 4 gusting 8 15.0
2019-Jun-18 09:35 183 2 gusting 10 15.0
2019-Jun-18 09:20 202 3 gusting 12 15.6
2019-Jun-18 09:10 208 4 gusting 10 15.6
2019-Jun-18 09:05 200 4 gusting 10 15.6
2019-Jun-18 09:00 173 2 gusting 6 15.6
2019-Jun-18 08:55 199 3 gusting 10 15.0
2019-Jun-18 08:45 165 4 gusting 8 15.0
2019-Jun-18 08:40 215 1 gusting 11 15.0
2019-Jun-18 08:35 169 1 gusting 10 14.4
2019-Jun-18 08:30 175 2 gusting 10 14.4
2019-Jun-18 08:25 168 2 gusting 6 14.4
2019-Jun-18 08:05 209 2 gusting 6 14.4
2019-Jun-18 08:00 164 2 gusting 8 14.4
2019-Jun-18 07:55 160 1 gusting 6 14.4
2019-Jun-18 07:50 139 2 gusting 6 14.4
2019-Jun-18 07:40 185 4 gusting 10 14.4
2019-Jun-18 07:35 202 2 gusting 6 15.0
2019-Jun-18 07:20 192 5 gusting 12 14.4
2019-Jun-18 07:15 184 4 gusting 10 14.4
2019-Jun-18 07:10 198 5 gusting 15 14.4
2019-Jun-18 07:00 195 5 gusting 14 14.4
2019-Jun-18 06:45 191 4 gusting 13 13.9
2019-Jun-18 06:35 229 5 gusting 11 13.9
2019-Jun-18 06:25 191 4 gusting 10 13.9
2019-Jun-18 06:20 205 3 gusting 7 13.9
2019-Jun-18 06:10 203 1 gusting 6 13.3
2019-Jun-18 06:00 204 4 gusting 10 13.3
2019-Jun-18 05:55 182 2 gusting 6 13.3
2019-Jun-18 05:40 207 6 gusting 13 13.3
2019-Jun-18 05:35 187 4 gusting 8 13.3
2019-Jun-18 05:30 207 4 gusting 11 13.3
2019-Jun-18 05:25 189 3 gusting 12 12.8
2019-Jun-18 05:20 217 5 gusting 10 12.8
2019-Jun-18 05:10 249 3 gusting 8 12.8
2019-Jun-18 05:05 198 3 gusting 10 12.8
2019-Jun-18 05:00 201 4 gusting 8 12.8
2019-Jun-18 04:55 239 4 gusting 8 12.8
2019-Jun-18 04:50 221 2 gusting 6 12.8
2019-Jun-18 04:45 219 1 gusting 6 12.8
2019-Jun-18 04:40 193 2 gusting 6 12.8
2019-Jun-18 04:35 180 2 gusting 10 12.8
2019-Jun-18 04:25 211 2 gusting 6 12.2
2019-Jun-18 04:20 181 2 gusting 10 12.2
2019-Jun-18 04:15 213 3 gusting 7 12.2
2019-Jun-18 04:10 180 2 gusting 10 12.2
2019-Jun-18 04:05 209 4 gusting 10 12.2
2019-Jun-18 04:00 188 3 gusting 7 12.2
2019-Jun-18 03:55 227 1 gusting 10 12.2
2019-Jun-18 03:50 207 4 gusting 10 12.2
2019-Jun-18 03:45 179 5 gusting 11 12.2
2019-Jun-18 03:40 226 2 gusting 6 12.2
2019-Jun-18 03:35 217 5 gusting 11 12.2
2019-Jun-18 03:30 183 2 gusting 11 11.7
2019-Jun-18 03:25 172 2 gusting 8 11.7
2019-Jun-18 03:15 185 1 gusting 5 11.7
2019-Jun-18 03:10 216 1 gusting 8 11.7
2019-Jun-18 03:05 174 2 gusting 7 11.7
2019-Jun-18 03:00 205 2 gusting 10 11.7
2019-Jun-18 02:50 198 2 gusting 6 11.7
2019-Jun-18 02:40 209 1 gusting 6 11.7
2019-Jun-18 02:35 202 1 gusting 5 11.7
2019-Jun-18 02:30 218 0 gusting 2 11.7
2019-Jun-18 02:25 195 0 gusting 2 11.7
2019-Jun-18 02:20 147 0 gusting 2 11.7
2019-Jun-18 02:15 217 0 gusting 1 11.7
2019-Jun-18 02:10 224 11.7
2019-Jun-18 02:00 133 0 gusting 2 12.2
2019-Jun-18 01:55 120 0 gusting 2 12.2
2019-Jun-18 01:50 236 0 gusting 1 12.2
2019-Jun-18 01:45 246 12.2
2019-Jun-18 01:40 246 12.2
2019-Jun-18 01:35 238 0 gusting 4 12.2
2019-Jun-18 01:20 160 1 gusting 2 12.2
2019-Jun-18 01:15 308 0 gusting 2 12.2
2019-Jun-18 00:55 222 0 gusting 4 12.2
2019-Jun-18 00:50 197 1 gusting 4 12.8
2019-Jun-18 00:45 222 12.8
2019-Jun-18 00:35 167 12.8
2019-Jun-18 00:30 167 12.8
2019-Jun-18 00:00 206 0 gusting 2 12.8
2019-Jun-17 23:55 143 1 gusting 6 12.8
2019-Jun-17 23:50 186 2 gusting 5 13.3
2019-Jun-17 23:45 171 2 gusting 5 13.3
2019-Jun-17 23:35 171 2 gusting 8 13.3
2019-Jun-17 23:25 194 0 gusting 2 13.3
2019-Jun-17 23:20 195 1 gusting 5 13.3
2019-Jun-17 23:15 164 1 gusting 2 13.3
2019-Jun-17 23:10 185 2 gusting 6 13.3
2019-Jun-17 23:05 165 2 gusting 5 13.3
2019-Jun-17 23:00 156 1 gusting 6 13.3
2019-Jun-17 22:55 224 2 gusting 7 13.3
2019-Jun-17 22:50 163 3 gusting 7 13.3
2019-Jun-17 22:45 178 2 gusting 6 13.3
2019-Jun-17 22:40 199 2 gusting 6 13.3
2019-Jun-17 22:35 173 2 gusting 6 13.3
2019-Jun-17 22:30 181 2 gusting 6 13.3
2019-Jun-17 22:25 164 2 gusting 6 13.3
2019-Jun-17 22:15 152 1 gusting 7 13.3
2019-Jun-17 22:10 179 2 gusting 6 13.3
2019-Jun-17 22:05 124 1 gusting 6 13.3
2019-Jun-17 21:40 171 2 gusting 8 13.3
2019-Jun-17 21:20 193 4 gusting 11 13.9
2019-Jun-17 21:15 188 1 gusting 6 13.9
2019-Jun-17 21:10 180 3 gusting 7 13.9
2019-Jun-17 21:05 195 2 gusting 7 13.9
2019-Jun-17 21:00 225 2 gusting 6 13.9
2019-Jun-17 20:55 195 2 gusting 7 13.9
2019-Jun-17 20:50 187 2 gusting 7 13.9
2019-Jun-17 20:45 169 3 gusting 7 13.9
2019-Jun-17 20:40 190 2 gusting 7 13.9
2019-Jun-17 20:35 182 1 gusting 6 13.9
2019-Jun-17 20:30 160 3 gusting 7 13.9
2019-Jun-17 20:25 178 4 gusting 10 13.9
2019-Jun-17 20:20 199 4 gusting 8 13.9
2019-Jun-17 20:15 197 3 gusting 8 13.9
2019-Jun-17 20:10 186 2 gusting 8 13.9
2019-Jun-17 20:05 191 4 gusting 10 14.4
2019-Jun-17 20:00 165 6 gusting 13 14.4
2019-Jun-17 19:45 208 4 gusting 10 14.4
2019-Jun-17 19:40 221 2 gusting 8 15.0
2019-Jun-17 19:35 205 2 gusting 10 15.0
2019-Jun-17 19:30 220 3 gusting 10 15.0
2019-Jun-17 19:25 199 5 gusting 13 15.0
2019-Jun-17 19:10 180 4 gusting 10 15.6
2019-Jun-17 19:05 179 7 gusting 11 15.6
2019-Jun-17 19:00 196 8 gusting 11 16.1
2019-Jun-17 18:55 181 8 gusting 11 16.1
2019-Jun-17 18:50 195 8 gusting 11 16.1
2019-Jun-17 18:45 217 7 gusting 11 16.1
2019-Jun-17 18:30 184 6 gusting 17 16.7
2019-Jun-17 18:25 193 6 gusting 17 17.2